User: anonymous   Login
Location: Unspecified
(37.5156°N, 0.0000°E)
Time: 12:27:21
(UTC+00:00)
Language:

OPS 8068 - Orbit

View from above orbital plane
View from above orbital plane
View from above satellite
View from above satellite

Ground track
Ground track

The orbit is defined by the following mean orbital elements,

1 01580U          26088.17566101 +.00000000 +00000-0 +12172-3 0 00004
2 01580  98.4087 247.2703 0227895 282.0927  75.4806 14.29599685    08
Epoch (UTC): 29 March 2026 04:12:57
Eccentricity: 0.0227895
inclination: 98.4087°
perigee height: 630 km
apogee height: 956 km
right ascension of ascending node: 247.2703°
argument of perigee: 282.0927°
revolutions per day: 14.29599685
mean anomaly at epoch: 75.4806°

The dashed part of the orbit path shows where the satellite is in the earth's shadow,  

DLR